This is the latest recevied weather packets stored in our database for station/object WX4LTG. If no packets are shown the sender has not sent any weather packets the latest 10 day(s).
| Time | Temp. | Humidity | Pressure | Rain* | Wind** | Luminosity | Snow |
|---|---|---|---|---|---|---|---|
| 1788140604 | 101° F | 32% | 755.8 mmHg | 0 in | - | 10 W/m² | - |
| 1788140300 | 101° F | 32% | 755.6 mmHg | 0 in | - | 15 W/m² | - |
| 1788140000 | 102° F | 32% | 755.7 mmHg | 0 in | - | 20 W/m² | - |
| 1788139695 | 102° F | 32% | 755.6 mmHg | 0 in | - | 25 W/m² | - |
| 1788139390 | 102° F | 32% | 755.5 mmHg | 0 in | - | 31 W/m² | - |
| 1788139089 | 102° F | 32% | 755.7 mmHg | 0 in | - | 34 W/m² | - |
| 1788138785 | 103° F | 31% | 755.6 mmHg | 0 in | - | 38 W/m² | - |
| 1788138481 | 102° F | 32% | 755.8 mmHg | 0 in | - | 45 W/m² | - |
| 1788138181 | 103° F | 31% | 755.7 mmHg | 0 in | - | 51 W/m² | - |
| 1788137877 | 103° F | 31% | 755.8 mmHg | 0 in | - | 72 W/m² | - |
| 1788137572 | 103° F | 31% | 755.9 mmHg | 0 in | - | 64 W/m² | - |
| 1788137267 | 104° F | 30% | 755.7 mmHg | 0 in | - | 70 W/m² | - |
| 1788136963 | 104° F | 30% | 755.8 mmHg | 0 in | - | 57 W/m² | - |
| 1788136658 | 104° F | 30% | 755.8 mmHg | 0 in | - | 98 W/m² | - |
| 1788136354 | 104° F | 30% | 755.9 mmHg | 0 in | - | 128 W/m² | - |
| 1788136053 | 104° F | 30% | 756 mmHg | 0 in | - | 142 W/m² | - |
| 1788135753 | 104° F | 30% | 755.7 mmHg | 0 in | - | 142 W/m² | - |
| 1788135449 | 104° F | 30% | 755.8 mmHg | 0 in | - | 163 W/m² | - |
| 1788135144 | 104° F | 30% | 755.8 mmHg | 0 in | - | 179 W/m² | - |
| 1788134841 | 103° F | 30% | 755.9 mmHg | 0 in | - | 194 W/m² | - |
| 1788134536 | 104° F | 30% | 755.9 mmHg | 0 in | - | 209 W/m² | - |
| 1788134234 | 104° F | 30% | 755.9 mmHg | 0 in | - | 225 W/m² | - |
| 1788133930 | 104° F | 30% | 755.8 mmHg | 0 in | - | 236 W/m² | - |
| 1788133624 | 103° F | 31% | 755.8 mmHg | 0 in | - | 252 W/m² | - |
| 1788133321 | 103° F | 31% | 756 mmHg | 0 in | - | 264 W/m² | - |
* Rain latest hour (hover to see other rain measurements)
** Current wind speed in m/s (hover to see current wind gust speed)